World > North America > United States > North Carolina

Crabtree Valley, North Carolina Regional Weather

Lat: 35.86N, Lon: 78.69W
Wx Zone: NCZ041
Feedback

Crabtree Valley, NC Regional Weather

Expires:201910160500;;776490
ASUS42 KRAH 160410
RWRRAH
NORTH CAROLINA WEATHER ROUNDUP
NATIONAL WEATHER SERVICE RALEIGH NC
1200 AM EDT WED OCT 16 2019

NOTE: "FAIR" INDICATES FEW OR NO CLOUDS BELOW 12,000 FEET WITH NO
SIGNIFICANT WEATHER AND/OR OBSTRUCTIONS TO VISIBILITY.


NCZ021-022-025-041-071-084-088-160500-
CENTRAL NORTH CAROLINA
  
CITY           SKY/WX    TMP DP  RH WIND       PRES   REMARKS
CHARLOTTE      CLOUDY    66  49  54 S7        30.00F                  
GREENSBORO     CLOUDY    60  51  72 S3        30.00F                  
WINSTON-SALEM  MOCLDY    59  50  72 CALM      30.01F                  
RALEIGH-DURHAM CLOUDY    57  52  83 CALM      30.01F                  
FORT BRAGG     MOCLDY    62  59  91 S3        29.99F                  
FAYETTEVILLE   CLOUDY    63  56  78 CALM      30.00F                  
BURLINGTON     MOCLDY    56  51  84 CALM      30.00F                  
ROXBORO        FAIR      50  50 100 CALM      30.03F                  
HENDERSON      FAIR      56  46  70 CALM      30.01F                  
LOUISBURG      NOT AVBL                                               
LAURINBURG     CLOUDY    65  55  70 E5        30.00F                  
$$
 

SKY/WX - Weather  TMP - Temperature  DP - Dew Point  RH - Relative Humidity
WIND - Wind Direction/Speed PRES - Barometric Pressure VSB - Visibility
WCI - Wind Chill Index E13G22 Wind - East Wind 13 mph/Gusts of 22 mph